Regional Weather Roundup
Issued by NWS

Home | Current Version | Previous Version | Text Only | Print | Product List | Glossary On
Versions: 1 2 3 4 5 6 7 8 9 10 11 12 13 14 15 16 17 18 19 20 21 22 23 24 25 26 27 28 29 30 31 32 33 34 35 36 37 38 39 40 41 42 43 44 45 46 47 48 49 50
000
ASUS43 KLMK 050402
RWRKY
KENTUCKY REGIONAL WEATHER ROUNDUP
NATIONAL WEATHER SERVICE LOUISVILLE KY
1200 AM EDT SAT SEP 05 2015

NOTE "FAIR" INDICATES FEW OR NO CLOUDS BELOW 12,000 FEET
WITH NO SIGNIFICANT WEATHER AND/OR OBSTRUCTIONS TO VISIBILITY.

KYZ001>023-026-027-061>063-070>075-050500-
WESTERN AND SOUTH CENTRAL KENTUCKY

CITY           SKY/WX    TMP DP  RH WIND       PRES   REMARKS
PADUCAH        FAIR      72  69  90 CALM      30.04R FOG
HENDERSON      CLEAR     72  66  83 CALM      30.05S
OWENSBORO      CLEAR     76  70  82 CALM      30.06S
HOPKINSVILLE   CLEAR     76  67  73 NE3       30.05S
BOWLING GREEN  CLEAR     75  66  73 CALM      30.06S
GLASGOW        NOT AVBL
$$

KYZ024-025-028>034-038-045-046-053-050500-
NORTH CENTRAL KENTUCKY

CITY           SKY/WX    TMP DP  RH WIND       PRES   REMARKS
LOUISVILLE/SDF MOCLDY    77  64  64 E5        30.09R
LOUISVILLE/LOU PTCLDY    76  64  66 E6        30.09S
FORT KNOX      CLEAR     76  65  69 E10       30.09R
$$

KYZ035>037-039>044-047>052-055>060-089>105-050500-
NORTHEAST KENTUCKY

CITY           SKY/WX    TMP DP  RH WIND       PRES   REMARKS
LEXINGTON      MOCLDY    73  62  68 NE16G24   30.13F
COVINGTON      CLOUDY    71  64  78 SE7       30.10S
FRANKFORT      MOCLDY    73  64  73 E13       30.12R
$$

KYZ054-064>069-076>088-106>120-050500-
SOUTHEAST KENTUCKY

CITY           SKY/WX    TMP DP  RH WIND       PRES   REMARKS
JACKSON        CLEAR     75  66  73 CALM      30.12S
LONDON         CLEAR     75  65  70 CALM      30.11S
SOMERSET       NOT AVBL
MIDDLESBORO    NOT AVBL
MONTICELLO     CLEAR     67  67 100 CALM      30.11F FOG
$$




USA.gov is the U.S. government's official web portal to all federal, state and local government web resources and services.